Location: Baumgarten
(49.0970°N, 12.7493°E)
Time: 02:27:06
(UTC+00:00)

Landsat 4 - Pass Details

Date: 05 July 2020
Orbit: 506 x 522 km, 98.2° (Epoch: 04 August)

Event Time Altitude Azimuth Distance (km) Brightness Sun altitude
Rises 22:57:15 0° 19° (NNE) 2,650 8.5 -18.1°
Reaches altitude 10° 22:59:25 10° 26° (NNE) 1,760 7.3 -18.2°
Maximum altitude 23:03:04 44° 100° (E) 730 4.3 -18.2°
Enters shadow 23:03:52 38° 135° (SE) 813 4.3 -18.2°
